Location: Most
(50.5133°N, 13.6207°E)
Time: 19:36:13
(UTC+02:00)

ISS - Pass Details

Date: 20 May 2019
Orbit: 407 x 410 km, 51.6° (Epoch: 23 May)

Event Time Altitude Azimuth Distance (km) Brightness Sun altitude
Rises 22:46:22 0° 249° (WSW) 2,329 0.2 -13.4°
Reaches altitude 10° 22:48:27 10° 248° (WSW) 1,470 -0.9 -13.5°
Maximum altitude 22:51:44 77° 162° (SSE) 425 -3.9 -13.8°
Drops below altitude 10° 22:55:03 10° 77° (ENE) 1,476 -1.2 -14.1°
Sets 22:57:08 0° 75° (ENE) 2,340 -0.1 -14.2°
